RH
66 65 62 59 59 61 65 67 68 70 76 79 85 92 91 87 86 82 77 77 73 68 68 65 61 57 55 53 47 44 46 47 45 47 52 44 39 37 28 24 21 19 17 17 18 18 18 19 20 18 17 15 14 16 22 27 30 32 34 35 35 35 35 36 36 38 40 42 44 45 46 46 47 48 51 51 51 52 52 57 55 46 43 47 46 39 42 42 37 32 27 25 27 31 33 34 41
64 63 60 60 60 61 65 69 70 73 79 79 86 90 87 88 85 81 78 78 77 73 68 64 63 61 54 45 41 39 42 47 42 36 35 31 30 29 25 22 20 18 17 16 17 17 16 16 16 17 17 15 15 16 20 25 29 32 35 35 34 33 33 34 36 40 43 46 47 48 49 48 50 53 56 56 54 56 60 65 63 53 47 52 52 45 46 48 49 50 46 42 42 42 43 48 54
64 62 60 61 62 63 65 69 72 77 83 83 91 91 88 90 82 77 78 80 83 78 66 62 62 59 50 42 41 38 38 41 35 28 25 24 23 20 20 20 19 18 17 16 16 15 14 15 16 16 17 16 16 16 20 24 28 31 33 33 32 31 32 34 38 42 45 47 47 49 50 50 58 60 59 60 62 64 65 65 63 59 53 53 55 51 50 51 56 62 63 59 54 45 51 65 62
64 63 63 63 64 66 66 69 72 79 84 83 91 91 89 88 81 79 77 77 83 78 62 56 60 56 49 45 42 40 39 38 34 28 21 20 19 15 16 18 19 18 17 16 16 14 13 15 17 17 18 17 18 20 24 27 29 31 33 32 31 31 31 35 39 44 45 44 44 47 49 49 56 64 63 60 68 73 68 65 63 64 63 62 58 57 59 58 59 63 66 63 58 49 55 61 53
66 67 67 66 67 68 66 73 78 81 83 83 91 91 89 86 80 78 75 73 75 72 59 53 56 53 49 43 40 40 40 38 31 24 19 16 16 13 15 18 18 18 17 16 16 13 13 16 17 17 18 18 20 24 28 30 32 33 33 33 31 30 29 33 39 43 40 37 38 42 46 46 48 59 66 61 66 72 68 66 65 65 66 68 63 58 61 64 63 61 60 58 54 51 52 52 56
65 68 69 68 69 71 72 79 80 81 79 80 92 92 87 81 74 72 72 70 67 66 62 58 53 48 45 40 42 44 42 41 29 20 19 15 13 14 16 17 18 18 17 16 16 13 13 16 18 18 18 20 24 28 31 32 34 34 35 34 31 28 27 31 37 39 34 30 33 38 41 43 47 55 63 63 63 67 68 66 64 65 66 69 66 57 55 56 56 51 53 58 56 54 55 56 66
61 63 66 68 68 71 78 80 79 80 76 82 95 93 84 75 69 66 66 69 64 58 62 68 57 44 41 38 43 45 41 42 33 19 18 16 12 15 16 17 18 18 17 17 17 15 13 17 20 19 19 23 27 30 34 36 37 37 37 35 30 26 25 29 32 30 26 27 33 36 38 39 44 47 54 66 67 66 70 70 68 68 66 68 65 58 53 48 43 37 44 57 60 63 71 73 71
59 60 63 66 65 69 77 78 76 76 76 87 96 94 86 73 68 65 63 65 61 56 57 60 52 40 36 35 37 38 36 41 35 18 16 17 12 15 17 17 18 18 18 18 17 15 13 19 22 20 22 26 29 32 36 39 39 38 36 31 27 24 24 25 24 19 18 24 31 32 35 36 38 39 47 64 70 65 67 71 73 70 66 66 62 55 48 42 37 33 36 44 51 63 76 86 78
58 59 61 62 61 65 73 74 73 77 84 91 95 96 85 72 72 69 66 65 63 65 58 46 42 37 34 34 33 31 29 32 28 17 18 17 12 15 18 18 18 17 18 18 17 16 15 20 23 22 24 27 31 36 39 40 37 35 31 25 22 20 19 16 13 11 12 18 24 27 31 34 36 36 42 60 69 65 63 64 65 63 62 60 55 51 45 37 33 33 38 41 47 57 66 79 77
56 57 58 58 58 62 70 70 72 86 96 95 99 97 81 72 77 74 69 67 65 66 60 47 40 36 34 32 28 28 25 24 21 17 21 17 12 16 19 19 19 17 18 18 17 15 16 19 22 23 26 29 35 41 41 37 33 30 26 20 18 15 11 9 8 9 11 13 18 25 30 33 34 31 41 60 67 66 63 61 58 56 57 53 47 45 40 35 35 41 47 48 48 50 51 58 66
54 54 54 54 56 63 71 69 71 90 100 98 101 94 80 76 77 77 71 64 61 57 51 46 38 34 37 32 25 27 26 22 18 16 21 16 12 17 19 19 19 19 18 18 16 14 15 20 23 24 28 34 40 44 41 34 27 23 20 15 12 10 9 9 9 10 11 12 18 27 31 31 30 28 41 52 53 61 62 59 58 53 52 48 41 34 32 36 42 48 51 51 50 45 41 41 47
53 52 52 50 51 61 72 69 70 85 96 98 99 91 85 86 80 75 68 59 59 54 46 40 34 34 37 31 24 27 29 24 18 16 18 14 13 17 19 18 19 19 18 19 17 14 16 21 25 27 31 38 40 40 37 29 21 16 13 11 11 12 11 10 10 10 10 13 21 28 30 28 26 26 32 35 34 48 58 60 60 53 49 40 32 29 34 45 48 49 51 53 52 43 36 32 31
53 52 51 49 48 56 67 68 69 78 90 96 98 94 90 93 83 74 68 59 58 55 47 40 33 33 34 30 24 25 29 26 20 17 14 11 14 17 18 18 17 18 19 19 17 15 16 22 27 29 33 37 36 35 32 23 14 11 11 12 15 16 14 10 9 10 11 13 18 24 27 24 23 22 22 26 25 31 43 56 58 55 58 42 30 33 39 52 55 54 53 52 49 39 30 27 26
52 51 50 50 47 50 57 63 66 71 87 97 97 94 91 89 78 76 76 61 57 55 45 38 32 31 31 27 22 22 26 25 21 18 13 11 14 16 18 18 16 17 19 19 18 16 17 23 29 31 32 34 33 32 27 16 9 10 13 17 19 20 16 11 8 10 12 12 13 18 22 21 23 21 21 24 25 32 39 48 52 50 58 43 26 31 35 45 53 57 59 57 50 38 29 25 24
49 48 48 49 47 46 49 57 63 69 86 97 96 94 90 85 74 78 81 62 55 52 43 41 37 33 30 24 20 19 22 24 23 19 13 11 14 17 18 18 16 16 19 20 18 16 17 23 30 33 32 33 33 30 22 11 9 13 17 22 23 24 20 12 9 10 12 13 13 14 19 22 23 23 24 24 27 40 41 43 51 48 47 35 23 26 28 32 39 46 53 58 55 41 30 26 23
45 45 45 47 47 45 47 53 61 70 80 87 92 95 93 88 78 80 81 63 54 50 43 41 38 35 33 26 20 18 18 21 23 19 12 11 15 17 19 19 17 15 18 21 20 18 17 21 29 32 30 33 33 28 18 8 10 16 22 27 29 29 21 11 8 8 11 15 15 17 21 23 23 22 23 26 27 29 25 29 38 38 37 32 29 28 25 25 26 31 35 43 50 42 32 27 23
41 41 41 42 43 43 46 50 58 75 79 77 90 97 97 93 85 83 76 65 58 52 44 36 34 35 34 29 21 18 17 19 22 17 12 11 14 17 19 19 17 15 18 21 20 19 18 20 26 28 26 30 32 27 16 8 11 20 26 32 34 32 23 12 7 9 14 16 15 17 19 18 19 20 22 28 29 24 22 24 25 27 29 29 31 31 28 25 23 27 28 34 42 39 32 26 23
36 37 37 37 38 38 42 44 51 79 85 77 88 97 98 95 91 89 78 71 65 53 45 36 33 34 33 30 23 19 16 17 20 15 12 11 13 16 17 19 17 15 17 21 21 19 19 19 23 24 23 25 29 26 14 7 13 22 31 35 35 33 27 18 10 11 16 15 12 13 15 15 14 18 23 27 27 26 25 26 26 28 29 29 31 31 30 28 26 28 29 31 32 29 26 22 21
32 34 34 33 34 34 37 39 46 74 87 77 83 92 96 97 94 91 81 75 67 53 46 38 33 32 32 32 26 21 17 16 19 15 12 12 12 14 15 17 17 14 17 21 20 19 19 19 21 22 21 22 26 24 13 7 14 25 35 35 31 29 27 23 16 14 16 14 13 14 15 14 13 16 25 29 28 27 26 28 30 30 32 33 34 34 34 32 32 32 31 30 27 23 20 19 19
30 31 32 31 31 31 32 35 39 59 77 75 77 84 93 97 92 87 81 75 66 54 48 39 33 30 30 33 29 23 18 18 19 17 14 12 12 12 13 14 14 13 15 21 21 19 18 18 19 19 20 21 24 22 12 7 14 27 35 33 28 26 26 26 24 20 17 16 17 21 21 18 15 16 24 31 31 27 25 28 29 30 33 34 35 38 39 39 38 36 34 32 29 23 19 19 20
27 29 32 32 29 29 29 31 33 44 62 68 71 77 85 92 90 85 81 76 67 56 50 44 36 30 28 31 30 25 20 19 21 19 15 13 12 13 15 15 13 10 13 20 22 19 17 16 17 18 20 21 22 18 10 6 13 28 34 31 28 27 28 29 28 26 22 20 22 27 29 27 22 17 21 30 31 22 18 21 23 27 30 30 30 31 34 37 38 36 34 33 30 24 20 21 23
22 25 30 33 30 28 28 28 30 37 54 65 66 70 77 88 92 86 80 76 68 57 53 51 43 31 27 26 27 26 21 19 21 19 15 13 13 13 15 17 15 10 10 19 23 20 17 16 17 18 20 21 21 14 8 6 12 27 32 29 29 28 29 30 30 30 29 28 27 29 29 29 27 20 19 27 28 20 18 20 20 23 24 24 23 22 22 26 30 30 28 29 27 24 23 24 25
19 19 24 29 30 29 27 27 29 34 50 64 66 65 75 91 94 87 84 81 72 61 54 51 45 35 29 25 24 23 20 19 20 19 16 13 12 11 12 14 15 10 9 16 23 22 19 17 17 18 20 20 18 11 6 6 12 24 30 28 29 28 29 31 30 31 33 33 32 33 31 27 24 20 17 20 21 18 19 20 20 22 21 19 18 17 17 17 19 20 19 21 22 22 22 23 23
16 17 19 22 26 27 25 25 26 29 38 52 63 62 68 88 96 89 88 88 79 67 53 45 42 36 33 29 23 19 17 17 19 19 16 14 12 11 11 13 14 11 9 14 21 23 21 19 18 19 20 19 17 10 5 8 14 20 26 26 27 28 29 30 28 28 30 33 33 34 33 28 22 19 16 14 15 17 17 17 17 20 20 19 18 16 15 13 12 12 12 13 16 18 19 19 19
15 15 16 16 19 21 22 23 24 25 25 37 58 62 65 84 95 92 91 92 85 71 53 43 40 35 35 34 26 19 17 18 19 20 19 15 14 12 11 12 13 11 8 12 19 23 23 21 19 19 20 19 16 9 5 12 15 16 21 23 24 26 29 31 28 24 25 28 31 31 31 28 23 19 16 15 15 18 19 18 17 18 18 19 19 16 14 13 11 10 10 11 12 14 15 16 16
12 12 13 12 14 15 17 20 21 24 23 33 55 64 73 84 87 90 93 92 88 76 59 47 40 34 34 35 29 21 17 18 18 19 19 17 15 13 12 12 13 12 8 10 18 23 24 23 20 19 20 20 16 9 8 15 16 14 17 20 22 23 25 31 32 25 22 23 25 27 27 26 25 22 18 17 16 17 19 19 20 20 17 16 16 14 12 12 11 10 10 10 11 12 13 14 14
8 9 11 10 12 13 14 16 18 22 23 32 49 63 76 81 78 85 91 90 90 85 72 57 43 35 34 33 31 25 18 17 16 16 17 17 16 14 12 12 13 13 8 8 17 24 25 25 22 20 21 21 17 11 11 17 15 14 16 18 20 19 21 28 31 26 21 21 21 22 24 25 26 26 22 20 17 15 16 16 17 18 13 11 12 12 12 12 11 10 10 10 11 12 14 14 15
5 7 9 9 10 13 14 16 19 21 25 30 39 52 64 71 75 81 87 89 90 90 83 68 51 40 36 33 29 25 21 18 16 15 15 15 15 14 13 11 12 13 10 6 13 24 28 26 23 21 23 23 18 12 13 16 15 16 17 18 17 17 23 29 30 26 24 24 24 24 24 23 25 27 25 22 18 14 13 12 13 16 13 11 11 12 11 11 11 10 9 9 10 12 13 15 16
4 6 7 8 10 14 16 17 19 21 24 28 35 44 52 60 70 79 84 85 88 90 84 72 59 49 44 38 29 24 22 19 17 15 13 13 14 13 12 11 11 13 11 6 8 19 27 28 24 22 25 26 19 12 14 15 15 17 17 17 16 17 24 30 29 27 27 27 25 24 23 24 25 25 23 22 20 16 13 9 10 16 16 11 11 11 10 9 10 10 9 9 9 10 11 13 14
4 4 4 7 11 14 18 20 21 21 22 23 30 43 51 55 66 78 82 82 86 85 77 72 64 56 52 46 34 25 23 20 17 17 14 14 14 13 12 11 10 12 12 7 5 12 23 29 25 22 26 27 19 12 13 15 14 16 17 16 14 18 26 29 29 29 29 29 28 26 24 24 24 23 23 22 21 19 16 11 8 12 15 12 10 11 10 9 9 10 10 9 8 9 9 10 11
2 3 2 6 11 14 21 24 23 25 26 24 29 44 55 57 65 77 78 80 89 87 78 76 71 62 55 50 43 32 25 21 18 18 15 15 15 14 13 11 10 11 12 9 5 7 16 26 25 22 26 27 20 13 13 15 14 17 17 15 14 21 28 29 30 32 33 34 35 34 30 26 24 24 25 25 23 21 18 14 10 10 12 12 11 11 11 9 8 9 10 10 9 8 8 8 8
2 3 2 5 9 15 27 29 25 26 27 27 31 46 56 58 64 71 74 75 85 91 87 85 81 71 57 49 48 42 32 24 20 20 17 16 16 15 13 12 10 10 12 9 5 5 9 19 22 21 24 27 22 15 14 15 15 18 16 14 17 22 27 28 30 33 35 36 38 40 35 29 27 26 26 27 26 23 20 16 12 10 10 10 10 10 11 10 8 7 8 10 10 9 8 8 8
3 3 2 5 7 16 32 31 24 21 19 21 30 48 56 58 63 67 71 70 73 83 87 89 89 77 60 50 49 46 39 29 24 23 20 18 18 16 14 12 9 9 12 10 5 4 6 12 17 19 21 25 23 15 12 13 16 19 15 14 19 22 25 27 30 32 33 34 35 37 34 31 30 30 29 27 25 23 21 19 15 12 11 10 10 10 11 11 10 8 7 8 9 9 9 9 9
3 3 2 5 5 18 35 30 22 20 20 24 33 47 56 59 64 65 69 70 68 74 79 87 89 76 62 55 52 50 44 34 28 27 24 22 21 19 15 12 10 8 11 10 5 4 4 9 15 17 19 21 22 15 9 12 17 18 15 16 20 22 25 28 32 35 34 32 32 32 33 33 33 33 33 30 26 23 20 20 18 15 12 10 10 10 11 12 11 9 7 8 8 9 9 9 10
3 3 2 4 5 19 35 30 23 21 23 30 37 47 54 59 64 64 66 67 66 71 78 85 84 75 66 62 59 54 48 39 30 28 26 25 24 22 16 13 12 8 9 10 6 4 4 7 13 16 18 18 18 14 8 13 19 17 16 19 21 22 24 29 34 37 36 33 31 31 32 33 34 34 35 34 30 25 21 20 20 17 13 11 11 11 11 13 13 11 8 8 8 9 9 10 10
4 4 3 4 4 19 35 30 24 22 18 25 36 46 49 52 59 60 59 60 65 74 85 89 82 76 72 67 65 60 54 47 36 30 28 27 27 25 18 13 12 8 9 10 6 4 4 6 13 16 17 16 14 11 9 15 20 17 18 21 21 20 23 31 36 35 33 32 31 30 29 29 28 26 27 29 30 26 20 16 17 17 14 12 12 12 12 14 15 13 9 7 8 9 9 10 10
5 4 3 3 3 16 33 32 28 24 19 21 28 35 40 43 48 52 51 54 68 81 90 94 89 88 85 75 71 66 61 54 44 36 31 29 30 29 21 14 13 10 8 10 7 4 4 6 12 16 16 14 11 8 11 17 18 15 17 20 19 18 22 32 36 32 27 29 33 33 31 30 28 24 21 21 23 22 17 13 13 14 14 13 12 12 13 16 17 14 9 8 8 8 9 9 10
5 4 3 4 2 11 27 35 33 27 25 28 28 31 36 38 38 42 44 49 70 86 89 95 95 97 98 88 79 71 64 59 53 46 40 36 35 33 26 17 14 12 9 10 8 4 5 7 11 15 14 11 6 7 13 16 14 13 16 18 17 15 21 32 35 28 23 25 30 32 33 34 34 31 26 19 15 14 13 11 10 11 13 13 13 13 14 17 18 15 9 7 8 8 9 10 10
6 5 3 4 3 7 21 34 34 31 31 31 27 26 30 30 28 32 36 40 62 81 84 92 96 92 95 96 87 75 71 71 66 58 51 47 42 36 30 21 15 12 9 9 8 5 4 7 11 14 12 7 4 7 13 14 12 13 17 17 16 14 19 29 32 27 24 25 27 30 34 36 36 34 30 23 14 11 12 11 9 8 11 12 13 14 16 18 19 15 10 8 8 8 9 10 10
6 5 3 4 3 5 16 26 30 33 33 27 23 23 22 21 20 23 30 33 48 69 78 88 96 90 85 86 82 75 79 82 76 66 58 51 47 42 34 26 18 13 11 10 9 7 5 7 11 12 9 5 4 8 12 12 12 14 17 19 17 14 16 22 25 27 29 29 28 32 36 36 35 33 28 21 14 11 11 10 9 8 9 12 13 15 17 19 19 14 9 8 8 8 9 9 10
8 6 4 4 3 3 10 16 23 29 30 24 24 26 20 17 20 22 28 31 38 58 73 83 92 88 79 76 74 73 77 82 78 71 63 54 52 49 39 30 23 16 12 12 11 8 5 7 10 10 7 4 4 9 12 12 13 16 19 22 20 15 14 16 20 25 30 30 29 33 35 33 30 25 20 17 13 11 9 8 9 10 11 12 13 16 18 19 18 14 9 8 8 9 9 9 9
11 8 5 4 4 4 6 10 17 25 30 29 27 30 26 22 26 27 27 34 39 50 66 76 81 81 81 82 81 79 77 80 81 75 67 58 52 49 42 33 29 19 13 12 11 9 6 6 10 9 5 4 5 8 11 13 14 17 20 22 20 14 12 14 17 22 28 29 31 32 28 24 20 18 17 17 16 14 11 8 8 9 11 12 13 15 17 17 16 13 10 8 9 9 10 9 9
13 11 8 6 5 5 5 9 14 22 32 34 27 31 34 31 32 31 34 44 45 45 54 64 70 76 81 85 84 82 79 80 85 82 75 66 54 51 49 39 31 22 14 12 11 9 7 6 9 8 5 4 5 7 11 13 14 16 19 19 17 12 10 13 14 19 27 30 31 28 21 18 18 17 16 16 16 17 15 12 10 8 9 10 12 13 14 14 13 11 10 9 10 10 10 9 8
14 14 10 7 5 5 6 8 11 17 26 30 27 29 36 39 37 34 39 48 45 38 41 49 58 68 76 80 80 81 78 76 82 86 84 78 63 57 54 41 31 22 13 12 12 10 8 7 8 8 5 4 5 7 10 12 13 14 16 16 16 13 10 11 13 17 24 26 26 24 18 18 21 18 15 16 17 17 16 15 13 10 8 7 9 10 10 10 9 9 9 9 10 10 10 9 9
18 17 12 9 7 6 7 8 11 14 18 23 28 29 35 43 45 39 36 38 38 37 40 44 49 59 68 75 78 80 76 70 77 86 85 79 68 60 56 42 30 23 14 11 12 11 8 7 8 7 5 4 4 7 9 11 11 11 13 15 17 16 11 10 12 15 18 18 20 23 19 18 20 19 17 18 17 14 12 11 11 10 7 6 6 7 7 7 8 8 8 9 9 10 10 9 9
23 19 14 12 10 9 11 13 14 12 11 17 25 28 34 45 52 48 37 33 40 46 49 49 46 48 59 69 73 76 75 70 77 88 84 75 64 55 52 45 33 27 18 12 10 11 9 7 8 8 6 5 4 6 9 9 10 10 11 14 16 18 14 11 13 14 14 14 16 19 19 17 17 18 19 19 17 14 11 8 8 8 7 6 6 6 6 6 7 7 7 8 9 9 10 10 9
29 22 15 16 15 15 20 26 24 15 10 15 22 23 29 44 54 51 39 41 57 62 58 54 49 48 54 64 69 71 73 71 79 88 84 75 65 50 45 45 40 33 24 15 10 10 10 8 8 7 6 5 4 6 8 9 9 10 10 13 16 19 16 12 13 14 12 12 12 14 16 18 17 17 17 16 16 16 14 10 7 7 7 7 7 7 7 7 7 8 8 9 9 10 10 10 10
27 22 18 20 22 24 29 36 34 24 16 19 22 18 22 38 47 41 33 41 57 59 56 56 60 67 70 75 78 77 75 72 78 88 84 76 69 57 49 49 47 41 32 23 15 10 10 9 8 7 6 6 5 6 7 8 9 9 10 12 15 18 18 13 12 13 12 10 10 10 11 14 16 14 12 10 10 11 12 10 7 7 7 7 8 8 8 8 8 8 9 9 10 10 10 11 10
19 21 21 22 27 29 32 34 33 30 25 23 22 18 20 32 37 32 30 40 50 52 50 48 54 65 73 82 90 89 83 76 81 92 88 79 75 69 61 56 56 54 46 34 21 12 11 10 9 8 7 6 5 6 7 8 9 9 9 12 14 17 18 16 12 11 11 10 9 9 9 10 10 10 8 7 7 7 7 8 7 7 8 7 8 8 8 8 8 8 9 9 9 10 10 11 11
13 17 20 21 23 24 29 31 30 33 33 30 27 22 21 25 26 26 32 43 49 52 49 46 49 51 54 69 83 89 87 79 81 94 95 88 84 80 70 61 62 68 62 46 29 16 11 10 10 9 7 7 6 6 6 7 8 9 9 11 13 15 16 16 14 11 10 10 8 8 7 7 7 7 6 6 6 6 6 6 7 7 7 7 7 8 8 8 9 9 9 9 9 10 10 11 12
12 13 17 21 20 18 23 25 26 32 37 36 34 30 23 20 21 25 35 42 46 51 51 48 53 53 51 55 60 67 76 76 76 85 90 92 91 86 75 63 65 73 72 59 41 24 13 10 10 10 8 7 6 6 6 7 8 9 9 10 12 14 15 15 15 12 10 9 8 7 7 7 7 6 6 6 6 6 5 5 6 6 6 7 7 7 8 8 9 9 9 9 9 9 10 10 11
14 13 14 18 20 19 20 24 28 36 41 43 42 38 28 19 18 27 39 44 43 46 51 54 60 63 59 55 52 56 68 73 73 76 80 88 94 88 77 67 66 72 76 68 54 40 25 13 10 10 9 8 7 6 6 7 9 10 10 10 11 13 14 14 14 14 12 10 8 7 7 7 7 6 6 6 5 5 5 5 5 5 5 6 6 6 7 8 8 9 8 9 9 9 9 9 9
15 15 13 13 17 20 20 21 27 36 45 49 47 46 37 24 18 25 37 46 41 37 42 50 60 65 62 60 61 65 71 75 76 77 79 87 95 92 83 75 68 69 76 74 65 56 42 24 13 10 9 8 8 7 7 8 10 12 11 10 11 11 13 15 16 15 14 12 10 8 8 8 8 8 6 6 6 5 5 5 4 5 4 4 5 5 6 7 7 8 8 8 8 8 10 13 14
16 16 15 13 14 18 20 19 21 28 41 49 49 50 49 36 22 16 24 34 31 28 33 37 46 57 57 59 64 67 73 79 79 78 76 81 91 93 87 82 76 74 78 78 72 65 54 36 20 12 10 8 8 7 8 10 12 13 13 11 11 11 12 14 15 16 15 13 12 10 9 9 8 9 8 6 6 5 5 5 4 4 4 4 4 4 5 6 7 7 7 8 10 14 19 22 23
19 20 19 16 14 16 19 20 19 22 32 43 47 51 53 47 32 17 16 24 21 20 27 29 39 51 52 58 66 64 67 75 76 73 69 71 84 91 88 86 86 85 83 82 77 68 57 42 24 14 11 9 8 8 8 11 13 14 15 13 11 11 11 12 14 15 15 14 13 11 9 10 9 8 8 7 6 6 5 4 4 4 4 4 4 4 5 6 7 7 8 11 17 24 27 27 26
20 24 24 20 17 18 19 19 21 21 26 32 39 46 49 49 45 29 19 24 24 21 23 25 37 53 61 65 61 47 46 60 71 71 68 71 81 90 91 91 92 94 95 90 82 74 63 50 32 19 13 9 8 8 7 10 13 14 15 14 13 11 9 10 12 13 16 15 14 12 10 9 9 7 7 6 6 6 5 5 5 4 4 4 4 4 4 5 6 8 12 18 24 28 28 25 24
23 26 28 25 22 22 19 18 21 22 24 25 28 37 40 44 50 42 28 26 28 27 24 23 36 56 68 66 49 26 21 43 67 71 69 71 78 88 94 92 86 88 97 96 88 81 71 60 49 33 19 11 9 9 8 9 11 13 15 14 14 13 10 9 10 11 14 16 14 13 11 10 8 7 6 6 5 5 5 6 6 4 4 4 4 4 4 5 7 11 17 23 27 27 25 22 21
30 27 31 30 26 24 20 19 20 20 24 26 24 28 32 38 47 48 39 31 29 30 27 26 40 58 64 58 48 30 15 36 71 78 73 70 71 82 92 89 81 81 89 93 91 88 78 69 64 51 31 16 10 11 9 8 9 10 13 14 13 13 11 8 9 9 11 14 15 14 13 11 10 8 7 6 5 5 5 6 6 5 4 4 4 4 5 6 9 14 21 25 26 25 22 20 21
Wind_Speed
2 1 2 3 5 6 6 7 7 7 7 7 8 1 9 13 13 13 13 13 12 11 9 7 7 5 5 6 5 6 7 5 6 8 9 8 9 9 8 8 8 8 8 10 9 8 8 8 9 10 11 11 12 13 13 13 14 14 13 12 11 10 10 10 10 10 10 10 10 9 8 7 8 9 9 7 6 5 5 5 5 5 4 4 3 2 3 4 4 6 6 6 6 5 4 3 3
3 3 2 4 5 7 7 8 7 6 6 7 8 3 12 11 12 12 11 11 10 9 8 7 7 6 5 5 4 6 7 6 6 8 9 9 10 9 8 8 8 8 8 9 9 8 9 9 9 10 11 11 12 12 12 12 12 12 12 11 10 10 10 10 9 9 10 10 9 9 8 7 8 10 10 8 6 6 7 7 6 5 5 4 3 4 4 4 4 5 5 5 5 5 4 3 5
5 4 3 5 6 7 8 8 6 6 7 6 6 5 12 12 14 13 12 11 11 9 7 8 7 6 5 5 5 6 7 7 7 7 9 9 9 10 9 8 9 9 9 9 8 8 9 9 9 10 11 11 11 11 11 11 11 11 11 10 10 10 9 9 9 9 10 10 9 8 7 7 8 11 11 9 7 8 8 7 6 6 5 4 4 5 6 5 5 5 5 5 5 5 3 4 6
6 5 4 6 7 8 8 8 7 7 8 7 7 5 14 14 15 14 13 13 13 10 7 9 7 6 5 4 5 5 6 7 7 7 8 9 9 9 10 10 9 9 9 9 8 8 9 9 10 10 11 11 10 11 11 11 11 11 10 10 9 9 9 9 9 10 10 9 9 8 7 7 9 11 12 10 8 9 9 7 7 7 6 5 4 5 7 7 6 6 6 6 5 3 3 6 7
7 5 5 6 7 9 8 9 7 8 8 8 9 6 17 15 16 15 14 13 12 10 8 8 8 7 5 5 5 5 5 5 6 7 7 9 10 9 10 11 10 9 9 9 8 8 8 9 10 11 11 11 10 10 10 10 10 10 9 9 8 8 8 8 9 9 9 9 9 9 8 8 10 11 12 11 9 9 9 9 8 7 7 7 6 6 8 9 8 9 9 9 7 5 5 7 7
6 5 6 7 7 8 9 9 7 9 9 10 8 11 19 16 16 14 13 12 11 10 8 7 6 7 6 6 6 6 5 3 4 8 8 8 10 10 9 11 10 10 9 9 8 8 8 9 10 11 11 11 10 10 10 10 10 9 9 8 8 8 8 8 9 9 9 9 10 10 10 9 10 10 11 12 10 9 9 10 9 9 9 9 9 8 9 10 10 10 10 10 10 9 8 9 8
5 4 5 6 7 8 9 8 9 11 11 13 5 17 20 17 17 14 14 12 10 9 8 6 4 6 6 7 6 6 6 3 2 7 9 7 10 11 10 10 10 11 10 9 9 8 8 9 10 11 11 11 10 10 10 10 9 9 8 8 8 8 8 8 9 9 9 10 11 11 11 10 9 10 10 12 13 11 10 11 12 11 12 12 12 12 12 12 11 10 9 10 11 12 13 14 12
4 4 5 6 6 7 8 9 12 14 11 11 5 21 20 18 17 15 15 12 10 8 8 6 5 5 6 7 7 7 7 4 3 6 10 8 9 11 10 10 10 11 10 10 9 8 8 9 10 10 11 11 10 11 10 9 8 8 8 8 8 8 8 9 9 9 10 10 11 11 10 10 9 10 10 12 15 13 12 13 14 13 14 14 14 15 14 13 12 10 10 10 11 13 16 18 17
4 4 5 6 6 7 8 10 14 14 8 5 11 23 20 19 18 16 15 12 11 9 8 6 5 4 5 7 8 8 7 7 5 6 9 8 9 12 11 10 10 10 10 10 10 9 9 9 10 10 11 11 11 11 10 9 8 8 8 9 9 8 9 9 10 10 11 11 11 11 11 10 10 10 11 12 14 15 14 15 15 14 15 16 16 16 15 14 13 12 11 11 11 13 16 19 21
4 4 5 5 6 7 8 10 15 11 5 2 15 22 19 20 18 17 14 13 12 10 9 7 6 5 5 7 8 9 8 8 8 8 9 8 9 12 12 10 10 10 10 10 10 10 10 10 10 10 10 11 11 11 10 9 8 8 9 9 9 9 10 10 11 11 11 12 12 12 11 11 11 11 12 12 13 16 17 16 15 15 16 17 17 16 16 15 15 14 14 14 13 13 15 18 21
4 4 5 5 5 6 7 11 16 10 2 5 17 22 19 19 19 17 14 13 12 10 9 8 8 8 7 7 9 9 8 8 8 8 10 8 9 13 12 11 11 10 9 10 10 11 11 10 11 10 10 11 11 10 10 9 9 9 10 10 10 10 11 11 10 11 11 12 12 12 12 12 12 13 13 12 13 15 17 17 16 16 16 16 16 16 17 16 16 16 17 17 15 14 14 16 19
5 5 5 4 4 5 6 10 15 13 3 7 17 22 20 19 19 17 14 12 11 10 9 8 8 9 9 7 9 10 9 8 7 8 9 9 10 12 12 12 12 11 10 10 10 11 11 11 11 11 10 11 10 10 10 9 10 10 11 11 11 11 11 11 10 10 11 11 12 12 12 13 14 14 13 13 14 15 17 18 17 17 17 16 16 16 16 17 17 17 18 18 16 16 16 16 17
6 6 6 5 4 5 5 9 13 14 5 6 15 22 20 19 18 17 14 12 11 10 9 8 7 8 9 8 9 10 10 9 8 7 7 9 10 12 12 11 12 12 11 10 10 11 12 11 11 11 10 10 10 10 9 10 11 11 12 12 12 12 11 11 10 10 11 12 12 13 13 14 15 15 14 14 14 15 16 17 17 17 17 17 16 16 16 17 17 18 19 18 18 17 17 16 16
7 7 7 6 5 4 4 7 10 14 8 6 15 20 20 19 19 18 14 13 12 11 10 9 6 6 8 8 8 10 11 10 9 6 6 8 10 11 11 11 12 12 11 10 10 10 11 11 10 10 10 10 11 10 10 11 12 12 12 12 12 11 11 11 11 11 11 12 13 14 14 15 16 16 16 15 14 15 16 16 16 16 17 16 15 15 15 16 16 17 19 19 19 18 17 17 16
8 8 8 7 6 4 3 6 9 13 10 3 12 17 20 19 19 18 14 13 14 13 12 9 6 4 3 4 6 9 11 12 10 7 6 7 9 10 10 10 11 12 12 11 10 10 10 10 10 9 10 10 11 11 11 12 12 12 12 12 12 11 11 11 11 11 11 12 13 15 15 16 17 17 16 16 15 15 16 16 15 15 15 14 14 14 14 14 14 15 16 17 18 18 17 16 15
9 8 9 8 6 5 3 5 7 11 10 5 5 13 19 19 19 18 15 14 13 12 11 10 8 6 2 3 4 8 10 13 11 8 8 8 10 10 10 10 10 11 12 11 11 10 10 10 9 9 10 10 10 11 11 12 12 12 12 12 12 11 11 11 11 11 12 13 14 15 15 16 16 17 17 17 17 16 16 17 15 14 14 13 14 13 13 12 13 14 14 14 15 16 17 15 14
10 9 9 8 6 4 2 4 5 8 8 4 2 9 16 19 19 18 16 14 12 12 11 11 10 9 4 4 4 7 9 13 12 10 10 9 11 11 10 10 10 11 12 12 11 11 11 10 10 9 10 10 10 10 11 12 12 12 12 12 12 12 12 12 12 12 13 14 15 16 16 16 17 17 18 18 17 17 17 17 16 15 14 14 14 13 12 12 12 12 12 13 14 15 15 14 13
11 9 8 8 7 5 2 2 3 6 7 5 2 6 14 19 19 17 17 14 13 13 12 12 11 10 7 4 4 5 7 12 12 10 10 9 11 11 11 11 10 11 12 12 12 11 11 11 10 9 9 10 10 10 11 12 12 12 12 11 12 12 12 12 12 12 13 13 15 16 16 17 17 17 18 18 18 18 17 17 16 16 15 15 14 13 12 12 12 11 11 12 12 13 13 13 12
11 8 7 7 6 5 3 0 1 3 4 4 4 4 10 18 19 18 17 16 15 15 14 14 13 12 10 5 3 4 6 10 12 10 9 8 10 11 10 11 11 11 12 13 12 12 12 11 10 9 9 9 10 11 11 11 11 12 11 11 11 11 11 12 12 12 13 13 15 16 16 17 17 17 17 18 18 18 17 17 16 17 17 16 15 14 13 12 12 11 11 11 11 11 11 11 11
12 9 7 7 7 6 4 3 2 1 1 2 3 5 6 14 18 18 17 17 15 16 15 15 15 14 12 8 3 3 6 9 12 9 8 7 8 10 9 9 10 12 13 13 13 12 12 12 11 10 9 9 10 11 12 12 11 11 11 10 11 11 11 12 12 12 12 13 14 15 16 16 17 17 17 17 18 18 17 17 16 17 17 17 16 15 14 13 12 12 11 12 11 11 10 10 10
15 12 9 9 9 8 6 5 4 3 3 2 1 5 8 13 17 16 17 16 14 14 13 12 12 13 12 10 6 5 6 9 12 10 9 8 8 9 9 8 9 11 13 14 13 13 13 13 12 10 10 9 10 11 12 11 11 11 10 10 10 10 11 12 11 11 12 12 13 14 15 15 16 17 17 17 17 17 17 17 17 17 17 17 16 16 15 14 14 13 12 12 12 12 11 11 11
16 15 13 12 10 9 8 7 6 5 5 2 1 4 9 15 17 14 15 14 12 12 12 11 10 10 8 9 9 7 7 9 12 12 10 9 9 10 10 10 10 11 13 15 14 13 13 13 12 11 10 10 11 12 12 11 10 10 10 10 9 10 11 11 11 11 12 12 12 12 13 14 15 16 17 17 17 17 17 17 17 17 16 17 17 17 16 16 15 14 14 14 14 14 14 13 14
17 18 17 15 13 11 10 8 8 7 7 5 1 2 7 14 16 13 14 12 10 11 11 11 11 9 5 5 9 9 8 9 11 12 11 11 11 10 10 11 11 11 13 15 14 13 13 13 13 12 11 12 12 13 12 11 10 9 9 9 9 9 10 11 10 10 11 12 11 11 12 13 14 15 16 17 17 17 17 17 17 16 16 17 17 17 17 17 16 16 16 16 16 16 16 16 17
18 18 19 18 16 14 12 10 8 8 8 7 4 2 6 13 15 12 13 12 10 11 11 11 12 11 7 4 6 8 8 8 9 9 9 9 9 9 9 10 10 11 13 15 15 14 14 13 13 13 12 12 13 13 13 11 10 9 9 9 9 8 9 10 10 10 10 11 11 11 11 12 13 14 15 16 17 17 17 16 16 17 17 17 17 17 18 17 17 17 17 17 17 18 18 18 19
19 19 18 18 17 16 14 12 10 10 10 8 6 5 6 13 14 9 12 12 11 12 11 10 11 11 10 5 4 6 7 8 9 9 9 9 9 9 9 9 10 11 12 14 16 15 14 14 13 13 13 13 13 13 13 11 9 9 9 9 8 8 8 9 9 9 10 10 11 11 11 11 12 13 14 16 16 16 16 16 16 16 17 17 17 17 18 18 17 17 18 18 18 18 18 19 19
21 19 17 16 16 15 14 13 13 13 12 9 8 7 7 12 11 7 11 13 12 12 10 10 9 10 11 8 5 6 7 8 10 10 10 11 11 10 10 10 10 10 12 14 15 16 15 14 13 13 13 13 13 13 13 11 9 9 9 8 8 8 8 8 9 9 9 10 10 10 11 11 11 11 13 14 15 16 15 15 15 15 16 17 17 17 18 18 17 17 18 18 19 19 19 19 19
23 19 17 16 15 14 13 13 14 14 14 12 10 9 9 10 8 7 11 13 13 12 10 10 9 9 10 10 7 6 5 6 8 10 11 12 12 11 11 11 11 11 12 13 15 16 16 15 14 13 13 13 12 12 12 11 9 9 8 8 8 8 8 8 9 9 9 10 10 10 10 11 11 11 11 12 13 14 15 15 15 15 16 17 17 17 18 18 17 17 18 18 19 19 19 18 18
22 19 18 16 13 13 11 11 12 14 15 14 12 11 11 10 8 8 9 11 13 12 12 11 11 10 9 9 8 6 5 5 6 8 9 11 12 13 13 12 11 11 11 13 15 16 16 15 14 14 13 13 13 12 12 11 9 9 8 8 8 8 9 9 9 9 10 10 10 10 11 11 11 11 11 11 11 12 13 14 14 15 15 16 16 17 18 17 17 17 17 18 19 19 19 18 18
22 20 19 15 13 12 11 11 12 14 15 16 15 13 12 11 10 9 9 9 11 13 14 13 11 10 9 8 7 6 5 5 6 6 6 7 10 12 12 12 11 11 11 12 14 16 16 16 15 14 14 13 13 13 13 11 10 9 8 7 8 9 10 10 10 10 10 10 10 11 11 12 11 11 11 11 11 11 12 12 13 13 14 14 15 16 17 17 17 16 16 17 18 18 18 18 18
23 21 18 15 14 13 12 11 12 14 15 16 16 15 14 14 13 12 11 9 10 15 17 14 12 11 10 9 8 7 6 5 6 6 5 6 8 10 11 12 12 11 11 12 14 16 17 16 16 15 14 14 14 14 13 12 10 9 7 7 8 9 10 11 10 10 10 10 10 11 11 12 12 12 12 11 11 10 11 11 12 12 13 13 14 15 16 16 16 16 16 16 17 18 18 17 17
23 21 17 15 14 14 12 11 12 15 15 16 17 16 16 15 15 14 12 10 12 16 17 15 13 11 12 11 10 9 7 6 6 6 6 6 7 9 11 12 13 12 11 11 12 15 17 17 17 16 15 15 14 15 14 13 11 9 7 7 9 10 11 11 11 10 11 11 10 11 11 11 12 12 12 11 11 10 11 11 11 12 12 12 13 14 15 16 15 15 15 15 16 17 17 16 16
22 20 18 15 16 15 13 13 15 17 18 17 18 18 17 16 15 15 14 12 13 16 16 16 14 13 13 13 12 10 8 6 6 6 5 5 6 8 10 11 12 12 11 11 12 13 16 17 17 17 16 15 15 15 14 13 11 9 7 8 9 10 10 10 11 11 11 11 11 11 11 12 12 12 12 12 12 11 11 11 11 11 12 12 12 13 14 15 15 14 14 14 15 16 16 15 15
21 20 19 17 17 16 16 17 18 19 18 18 19 20 18 17 16 15 15 14 14 15 15 17 16 14 14 13 12 11 8 6 6 6 5 5 5 6 8 10 12 13 12 12 12 13 15 17 18 18 17 16 15 15 15 13 12 9 8 8 9 10 10 10 11 12 12 12 12 12 12 12 12 12 12 12 12 12 12 12 11 11 12 12 12 13 13 14 14 13 13 14 14 14 15 15 15
21 21 20 19 18 18 19 20 19 18 17 18 20 21 20 19 18 17 16 15 15 14 15 19 18 16 15 13 11 11 10 8 8 8 7 6 5 5 6 8 10 13 12 11 12 13 14 17 18 19 18 16 15 15 15 13 12 10 9 9 10 10 10 11 12 12 13 13 13 13 12 12 12 11 11 11 12 12 12 12 11 11 12 12 12 12 13 13 13 13 13 13 13 13 14 14 14
23 22 22 21 20 20 22 21 20 19 19 21 22 21 20 20 20 19 18 17 15 14 16 19 19 17 15 12 11 11 11 10 10 9 8 7 6 5 5 7 10 12 12 11 11 12 14 16 17 18 18 17 16 15 14 13 12 10 10 10 11 11 11 11 12 12 13 13 13 13 13 12 12 11 10 11 12 12 12 12 12 11 11 12 12 12 12 13 12 12 12 13 13 13 13 13 14
25 24 24 23 21 22 23 22 20 20 20 22 23 23 22 21 21 20 20 18 16 16 17 19 20 17 14 12 10 11 11 11 10 9 7 7 6 6 5 6 9 11 12 12 12 13 15 16 17 18 18 17 16 16 15 13 12 11 11 11 11 11 12 12 12 13 13 13 13 13 13 13 12 12 11 12 12 12 12 12 13 13 12 12 12 12 12 12 12 11 12 12 12 12 13 13 13
26 26 26 25 23 23 24 23 21 20 19 21 24 25 24 23 23 22 21 20 19 21 20 19 19 17 13 12 11 12 11 9 8 8 7 6 6 6 5 5 7 10 11 12 12 13 15 18 19 19 19 18 18 18 16 14 13 13 13 13 12 12 12 13 13 13 13 14 14 14 14 13 13 12 12 12 13 13 13 13 14 14 14 14 13 13 13 12 12 12 12 12 12 12 12 12 12
28 28 28 27 25 25 25 24 22 20 20 23 25 26 26 25 25 23 23 23 23 25 24 21 21 19 17 15 14 14 11 8 6 6 7 5 5 5 5 5 7 10 12 12 12 13 15 18 19 19 19 20 20 18 16 14 12 12 13 12 12 12 12 13 13 13 13 13 13 14 13 13 12 12 12 12 13 14 14 14 14 14 15 15 15 14 13 12 12 12 12 12 13 13 13 12 12
30 30 30 29 27 27 28 27 25 23 24 26 27 27 27 27 27 26 25 26 26 28 27 24 22 21 20 19 17 15 10 7 7 7 7 7 6 6 6 6 7 9 11 11 11 13 15 17 19 20 20 21 21 18 15 12 11 11 12 12 11 12 13 13 13 14 13 13 13 14 13 13 12 12 12 13 14 14 15 15 15 15 15 15 15 15 13 12 11 11 12 12 13 13 13 12 11
31 30 30 29 29 30 31 30 29 27 27 28 27 27 26 26 26 26 26 27 27 28 28 26 22 21 22 21 20 17 13 11 10 10 10 9 7 7 7 7 7 8 10 10 10 12 15 17 19 20 21 22 21 18 15 12 11 11 12 11 11 11 13 13 14 14 14 13 13 14 14 13 13 13 13 14 14 15 15 15 15 15 15 16 16 15 13 12 10 10 11 12 12 12 11 11 10
30 29 28 28 29 31 32 33 31 30 29 28 27 27 25 23 24 25 26 26 26 26 27 26 23 21 20 19 17 16 15 14 13 12 12 11 10 9 8 8 7 8 10 11 11 12 14 18 20 21 22 23 21 18 15 13 12 12 13 12 12 12 13 14 14 14 14 14 15 15 14 13 13 14 15 15 15 15 15 15 15 16 16 16 15 15 13 12 11 10 11 11 11 10 10 9 9
28 27 27 27 29 30 33 34 33 32 30 28 29 28 24 22 23 24 24 25 26 26 26 26 25 22 20 17 15 15 14 14 13 13 13 13 13 12 9 8 8 9 11 13 13 12 14 17 20 20 21 22 20 18 16 14 14 14 15 15 14 15 15 15 14 14 13 14 14 15 14 14 14 15 15 15 15 15 15 15 15 15 15 15 15 14 13 12 11 11 11 11 10 9 8 8 8
27 24 25 28 28 29 33 35 34 33 32 32 30 28 25 23 24 24 24 25 26 27 27 26 25 22 20 17 16 16 14 14 14 13 12 12 12 12 10 9 10 10 12 13 13 13 13 16 19 20 21 21 20 18 17 16 15 16 17 17 15 15 15 14 14 14 13 13 13 14 14 14 15 15 16 15 15 15 15 14 14 14 15 14 14 13 13 12 11 12 12 11 10 8 7 7 8
26 23 25 28 28 29 33 36 35 34 34 34 30 28 27 25 24 24 25 26 26 26 26 26 25 23 21 18 16 16 16 14 14 14 14 13 12 12 12 12 12 11 12 13 13 14 14 15 18 20 21 21 20 19 18 17 16 16 16 16 14 13 13 13 14 14 14 14 13 13 14 15 15 16 16 16 15 15 14 13 13 14 14 14 13 13 12 12 11 12 12 11 10 8 7 7 8
25 25 28 30 30 31 35 37 36 35 35 34 31 29 28 26 25 24 25 24 23 22 23 24 25 24 22 19 17 17 16 14 13 14 16 16 15 15 14 13 12 11 11 13 15 15 16 16 18 20 21 21 20 19 18 18 17 15 14 15 14 14 13 13 13 14 14 14 14 14 14 15 16 16 16 16 16 15 14 14 13 14 14 14 13 13 12 12 12 11 11 10 9 8 8 9 10
27 30 32 32 33 34 36 38 37 36 36 33 31 31 28 26 26 25 23 20 17 17 21 23 24 24 23 21 18 17 16 13 12 14 17 18 18 18 18 15 12 10 10 13 15 16 16 16 17 19 21 21 20 20 18 18 16 14 13 14 15 15 14 14 14 14 15 15 15 15 15 15 15 16 16 15 15 15 14 14 14 14 14 14 13 13 12 12 12 11 11 10 10 9 9 10 11
32 34 35 35 35 36 38 38 38 37 35 33 32 32 30 28 28 26 23 20 18 20 22 22 22 22 22 20 18 17 16 14 13 14 17 18 18 18 17 15 13 11 10 10 12 15 16 16 17 19 21 21 21 20 18 17 15 14 13 13 15 16 16 15 15 15 16 16 16 15 15 15 15 15 16 16 15 15 14 14 14 14 13 13 13 13 12 12 12 11 11 11 11 11 11 11 12
37 37 37 38 38 38 40 40 40 39 35 33 33 33 31 31 29 27 25 25 26 26 26 25 23 21 21 19 18 16 17 17 16 16 17 17 16 15 14 14 13 11 9 8 11 14 16 17 17 18 20 21 21 21 19 17 15 14 13 14 15 17 17 16 16 16 16 16 16 16 16 16 16 16 16 16 16 15 14 14 13 13 13 13 12 12 12 11 11 11 11 11 11 11 11 11 11
39 38 39 41 41 42 42 42 41 40 35 32 33 33 32 32 31 28 27 29 29 28 29 30 29 28 27 24 21 19 19 20 19 18 17 17 15 14 14 14 13 11 10 9 11 14 17 18 18 18 20 21 22 21 20 18 16 15 14 15 15 17 18 18 17 16 15 14 15 15 16 16 16 16 16 15 15 14 14 14 13 13 13 12 12 12 11 11 11 11 11 11 10 11 10 10 10
37 38 40 41 43 43 44 44 42 40 36 33 33 33 32 33 32 30 30 30 28 27 28 28 29 30 31 31 28 26 24 23 22 21 19 17 16 16 16 16 15 13 13 13 12 14 17 19 19 19 20 22 22 22 21 20 18 16 15 16 16 17 18 19 18 17 15 14 14 15 15 14 14 14 14 14 14 14 13 13 13 13 12 12 12 11 11 11 11 11 11 10 10 10 10 10 9
36 38 40 41 42 43 43 43 42 40 37 34 34 34 33 32 31 30 31 30 27 27 26 24 24 27 29 31 31 30 28 26 26 24 21 19 19 18 18 18 17 16 15 15 14 14 17 19 20 21 21 22 23 23 22 21 19 17 16 16 17 17 17 18 19 18 16 15 14 14 13 13 13 13 13 14 14 13 13 13 12 12 12 11 11 11 11 11 10 10 10 10 10 9 9 9 9
36 37 40 42 43 43 43 43 42 41 39 37 35 34 33 32 30 31 34 32 28 26 25 22 23 25 27 26 25 26 26 26 26 25 23 21 21 20 19 18 19 18 17 16 16 15 16 19 21 22 23 23 24 24 24 23 21 20 18 17 18 18 16 16 16 17 17 17 15 14 13 12 12 12 12 13 13 13 13 13 12 12 12 11 11 11 11 11 11 10 10 10 10 9 9 9 8
37 38 39 40 42 43 45 45 45 44 41 39 38 36 35 34 32 33 35 34 30 27 25 24 23 23 23 22 21 21 22 23 24 25 23 22 22 21 19 18 19 19 18 17 17 16 17 18 21 23 25 25 25 25 25 25 23 21 19 19 19 19 17 16 16 16 17 18 17 16 14 12 12 12 12 12 13 13 13 13 12 12 11 11 11 11 11 11 11 11 10 10 9 9 9 9 8
38 38 38 39 41 43 45 45 46 46 44 42 41 39 37 35 35 35 36 35 32 29 27 26 24 23 22 22 22 21 21 23 25 25 24 23 23 22 20 19 18 18 19 19 19 19 18 18 20 23 25 26 27 27 27 26 24 22 21 20 20 21 20 18 17 17 17 17 17 17 15 14 14 13 12 12 12 12 13 13 13 12 12 11 11 11 11 11 11 11 11 10 10 9 9 8 8
38 38 39 39 42 43 45 46 46 46 46 45 44 41 39 38 37 36 35 33 32 31 30 28 25 24 24 23 23 23 22 23 24 24 23 23 23 23 21 20 19 19 19 20 21 21 19 18 19 21 25 28 29 30 29 28 26 25 23 22 22 22 22 21 19 17 16 16 16 17 17 16 15 15 14 13 13 12 13 13 13 13 12 11 11 11 12 12 12 12 12 12 12 11 9 8 7
39 39 39 40 42 44 45 46 46 45 46 47 46 44 42 41 39 37 35 34 32 31 31 30 27 26 26 26 26 24 21 22 23 25 25 24 24 25 23 22 22 21 21 22 22 21 20 19 18 19 23 27 30 31 31 30 29 28 26 24 23 23 23 22 20 18 17 16 16 16 17 17 17 16 15 14 14 13 14 14 14 13 12 12 11 11 12 13 13 14 14 14 14 12 10 9 7
40 40 41 41 42 44 45 46 46 46 46 47 47 46 45 44 42 40 38 36 33 32 32 31 29 29 30 31 31 26 21 22 25 27 28 29 29 29 28 26 26 26 24 23 23 22 22 20 18 17 19 24 28 31 32 32 31 30 28 26 25 24 24 23 22 20 18 18 17 16 17 17 17 17 16 15 15 14 14 14 14 14 13 11 11 12 13 14 14 15 15 16 15 13 11 10 8
41 42 42 43 43 44 45 46 47 47 47 47 47 48 48 46 44 42 41 39 37 34 33 33 32 33 34 36 36 29 23 24 27 27 29 32 33 34 33 32 31 30 27 25 25 25 24 22 19 17 17 20 26 30 32 33 33 32 30 28 27 26 26 25 23 22 21 20 18 17 17 16 16 16 16 15 15 15 15 15 15 14 13 12 11 12 14 15 16 16 16 16 15 14 12 11 9
Wind_Direction
246 289 322 349 354 347 333 331 324 320 321 325 329 297 136 133 142 145 148 151 151 142 139 139 132 130 116 105 92 88 84 80 91 95 96 91 82 69 66 74 77 74 73 77 80 85 89 91 91 92 92 92 91 91 91 88 87 86 85 85 84 83 81 80 79 78 77 77 76 75 74 74 77 76 75 74 73 75 74 81 99 115 128 143 154 163 141 127 135 142 146 145 147 165 183 173 108
260 282 319 353 352 343 335 335 330 324 316 326 347 134 146 140 140 142 147 147 148 142 130 121 124 131 116 103 95 92 96 99 95 94 98 99 96 88 80 80 81 78 77 80 82 88 94 96 95 96 95 94 94 94 93 91 91 90 90 89 87 86 85 84 83 82 79 76 73 70 67 65 73 77 77 78 74 71 70 72 80 92 110 130 145 158 143 136 153 155 153 154 170 194 192 142 112
269 284 320 345 344 339 335 335 331 328 320 326 345 155 151 144 144 141 143 144 150 150 132 124 130 130 110 99 97 93 98 103 95 93 98 99 100 100 99 92 87 85 81 83 85 91 98 101 101 99 98 98 98 97 96 95 95 94 94 93 91 89 90 90 89 85 79 74 71 68 63 55 67 78 78 77 77 77 75 73 75 80 95 110 134 148 135 140 162 160 153 157 182 201 171 109 103
270 287 324 339 336 332 331 335 333 328 316 317 322 189 157 147 147 143 143 144 151 156 139 127 128 124 111 104 101 98 104 106 99 95 101 103 103 104 106 100 93 90 86 87 89 93 100 104 104 102 102 102 101 100 99 98 97 96 96 95 92 90 91 91 87 82 79 76 74 71 64 53 62 77 77 72 74 79 80 79 78 82 92 97 112 123 124 138 146 134 132 138 154 167 111 89 96
273 293 326 335 329 328 332 335 332 324 308 316 328 176 156 147 146 146 147 144 149 154 140 129 130 128 117 106 98 96 103 111 111 105 106 110 109 108 107 103 97 93 89 91 91 94 103 105 104 105 105 105 104 103 101 98 97 98 98 97 95 92 90 87 85 83 82 81 80 77 68 55 55 69 77 78 74 76 79 79 81 84 93 99 102 104 112 124 122 119 124 126 127 114 89 85 97
278 296 322 325 326 331 330 329 327 322 314 322 327 159 153 147 144 145 145 142 145 149 148 144 131 127 121 112 105 100 96 112 122 109 111 115 114 113 108 104 101 97 94 95 93 97 106 106 107 108 107 107 107 105 101 98 98 100 101 101 97 93 90 88 88 88 88 86 84 78 69 58 51 58 76 87 83 76 79 81 86 90 97 103 104 103 100 101 101 108 119 120 118 112 99 93 96
280 294 315 314 319 325 323 332 341 332 324 323 296 158 152 148 144 142 143 140 140 140 145 158 137 126 128 121 118 110 93 105 136 111 117 123 118 118 112 108 107 103 100 100 99 102 107 109 110 111 110 109 109 106 102 101 101 102 103 100 95 91 90 92 95 94 92 88 83 78 70 62 52 51 68 88 89 81 81 83 88 94 99 103 104 103 97 93 89 90 98 100 102 103 103 102 103
280 295 308 306 308 311 323 340 346 337 327 326 183 158 153 148 145 144 143 139 139 134 136 152 150 137 131 124 119 108 95 107 131 114 121 130 122 120 115 111 113 109 108 107 105 107 111 113 114 114 113 112 110 107 104 103 103 102 100 96 92 90 91 94 94 90 87 85 83 80 76 69 60 52 56 78 88 86 86 86 88 92 96 100 102 102 99 96 92 88 85 81 83 91 97 101 103
286 301 302 302 305 310 328 341 346 341 336 348 159 158 152 150 149 146 141 138 142 143 142 141 139 133 128 125 113 105 102 110 117 112 120 132 126 120 116 112 115 114 116 113 110 114 116 119 118 116 116 115 112 109 106 104 103 101 98 95 93 91 89 89 87 84 82 83 84 85 84 78 71 61 55 67 85 89 87 87 89 92 95 99 102 104 104 101 100 100 94 87 81 82 89 95 100
282 297 299 303 311 318 331 347 359 357 351 66 159 156 150 152 148 147 142 140 145 146 146 141 133 122 123 122 107 103 104 111 115 113 120 134 130 121 118 116 116 116 121 119 118 121 121 123 120 120 120 118 115 112 108 105 104 104 102 100 96 91 86 84 84 84 84 86 90 91 90 86 80 72 65 65 80 90 89 88 89 92 96 99 104 106 106 106 106 104 99 94 86 82 85 92 99
269 283 293 306 318 322 336 358 14 19 14 154 161 154 150 152 145 146 146 142 145 143 144 146 139 129 129 122 108 103 99 103 109 115 123 138 133 124 122 122 121 120 125 125 125 126 126 127 124 126 125 120 116 111 107 104 106 106 106 103 96 89 85 85 86 88 89 92 95 96 93 90 86 79 74 72 78 89 94 94 93 92 91 93 98 101 102 102 101 99 97 97 96 94 91 92 98
260 271 280 301 317 316 341 5 19 23 28 168 162 156 154 154 147 145 143 141 141 138 141 143 142 137 134 128 117 109 102 99 102 112 124 139 134 124 123 124 126 126 129 130 130 130 131 132 131 129 125 119 114 109 107 107 109 107 105 100 94 89 87 89 91 93 95 97 99 98 95 92 88 83 78 75 76 84 93 98 99 99 99 99 100 99 99 100 97 96 97 100 102 101 98 95 97
253 263 271 286 305 305 346 7 16 21 5 190 165 159 157 156 152 145 140 142 140 141 145 143 146 145 138 134 128 116 107 103 104 111 124 137 131 121 122 125 128 130 131 133 133 134 134 135 133 129 125 119 113 110 111 111 109 105 102 98 94 91 90 92 94 96 98 100 100 99 96 92 89 84 79 76 73 76 85 94 100 105 108 107 106 103 102 102 101 99 100 104 104 102 103 103 101
250 258 266 270 284 292 350 8 14 16 358 200 172 164 161 160 155 146 144 148 148 148 149 141 140 146 143 143 139 125 117 111 108 114 129 135 126 118 119 123 128 131 133 137 138 136 136 135 133 129 125 120 115 115 115 113 109 105 103 100 97 95 94 95 97 98 98 99 99 98 95 92 90 88 84 81 76 72 76 81 87 94 98 97 97 98 97 99 101 102 103 106 108 108 110 108 103
248 255 265 268 276 285 352 15 18 17 16 143 176 173 164 164 158 148 149 155 155 154 150 138 129 133 146 162 150 135 126 118 114 123 138 136 123 117 117 120 126 133 137 141 141 137 136 135 134 132 126 121 118 118 116 114 112 108 106 103 101 99 98 98 100 100 99 99 99 97 94 93 94 93 91 88 84 79 78 79 79 83 88 92 92 91 90 91 93 94 95 99 105 108 107 105 101
245 249 262 271 273 287 357 25 22 22 27 70 170 182 171 168 161 153 153 156 155 155 149 137 131 125 131 239 176 145 132 122 122 135 146 141 129 122 120 121 126 134 141 145 144 139 138 138 139 137 130 124 120 119 119 119 116 112 109 107 105 102 101 100 101 100 99 98 98 98 97 97 97 96 94 91 89 86 84 84 86 88 93 98 98 96 93 90 87 85 84 88 95 98 100 102 102
243 242 255 267 272 285 353 31 20 23 18 27 146 190 182 171 164 156 151 152 153 152 147 136 130 125 131 233 203 153 137 126 130 144 150 147 136 131 129 127 129 137 145 149 148 144 142 142 142 141 132 127 124 123 125 123 119 115 112 110 108 105 104 103 102 100 97 96 97 100 100 101 100 99 97 94 92 89 87 86 89 92 95 98 101 102 102 99 94 90 89 88 89 91 97 102 103
243 241 246 260 269 275 309 31 21 26 8 360 91 184 187 174 168 159 149 147 153 152 148 142 136 131 135 196 206 158 144 131 134 146 150 151 141 135 133 133 134 141 151 154 152 148 146 144 144 142 134 129 129 131 131 127 123 119 115 113 110 107 107 105 103 100 97 96 97 100 100 101 100 99 97 96 94 91 90 89 90 91 92 93 97 101 105 107 106 104 101 97 94 95 99 103 104
243 242 239 249 261 261 253 166 62 29 4 358 50 132 179 180 170 159 154 148 153 156 153 150 143 141 141 154 186 161 152 134 131 141 146 150 144 137 136 137 140 145 155 158 156 151 147 145 143 142 136 133 136 139 137 131 128 123 118 115 110 109 109 107 103 100 98 98 98 98 98 98 98 98 98 96 95 93 92 91 91 92 91 92 94 98 103 109 112 113 111 107 106 105 104 104 104
240 239 232 236 245 243 233 202 184 193 292 340 42 88 143 178 168 156 158 152 156 162 158 156 149 150 148 139 144 167 161 133 126 132 140 147 139 132 130 133 140 147 156 161 160 154 149 146 144 143 140 138 142 146 142 137 133 128 123 118 111 109 109 108 105 102 100 99 98 97 96 96 97 99 99 97 95 94 94 93 92 91 91 91 93 97 101 106 110 113 114 115 114 113 109 104 102
237 236 230 227 232 232 227 210 196 203 226 285 63 92 104 151 161 156 161 159 162 166 161 158 151 156 154 137 139 173 171 139 128 132 140 149 138 131 130 131 140 148 157 162 162 158 151 147 145 147 144 142 147 150 146 141 138 135 128 120 112 109 108 107 107 105 103 100 98 97 96 95 97 99 100 100 98 96 95 94 91 90 90 90 91 94 98 103 107 111 114 115 115 114 111 106 101
235 234 230 225 224 225 224 214 202 202 212 231 132 109 112 142 158 159 164 165 166 166 160 157 153 161 160 141 146 174 182 150 138 140 147 155 148 144 145 145 148 151 158 162 162 160 154 148 147 150 150 147 150 153 150 145 143 139 130 121 113 109 107 108 108 108 106 104 101 99 97 96 96 99 101 102 101 99 96 94 92 91 90 88 88 91 94 98 103 107 109 111 112 112 111 108 103
231 232 231 228 225 221 220 217 212 211 211 215 198 111 124 151 164 162 164 169 169 169 163 156 154 158 166 158 154 171 186 162 149 150 155 161 155 151 151 149 150 152 158 161 164 162 156 152 151 154 156 151 152 155 153 149 147 143 134 123 115 111 109 110 111 110 109 107 107 104 100 98 97 97 100 103 103 100 96 95 94 92 90 88 87 89 91 93 97 100 103 105 108 110 111 110 108
229 230 230 229 228 224 221 219 219 224 222 222 221 169 127 147 160 161 167 178 177 173 168 161 158 155 159 185 171 174 184 165 154 152 153 156 149 147 150 150 151 154 158 160 165 165 160 157 156 159 159 153 153 157 156 152 149 145 138 129 121 116 112 112 112 111 110 110 111 108 104 100 99 97 98 102 104 101 97 95 94 93 92 89 87 88 91 93 94 96 99 102 105 109 111 112 112
227 228 229 229 231 231 228 224 222 230 233 229 214 191 140 140 151 162 172 180 180 175 171 167 164 157 152 167 200 190 179 163 154 151 151 152 150 153 156 156 156 156 158 161 165 165 162 161 160 161 158 153 155 159 158 153 149 145 140 132 124 119 116 115 113 110 110 112 114 114 110 106 103 101 99 100 101 101 99 97 95 93 92 90 88 89 91 93 95 96 99 102 104 108 111 114 114
225 226 228 228 229 231 230 226 224 229 235 229 204 182 150 141 144 155 167 173 178 176 173 172 171 164 153 155 199 210 186 168 161 158 160 159 159 162 160 158 158 157 159 161 163 164 162 163 163 161 157 153 155 160 160 156 149 146 143 133 125 121 117 115 112 110 111 113 116 118 116 113 109 105 102 100 100 100 99 99 98 95 93 92 90 90 90 92 94 97 100 102 104 107 111 114 116
225 224 225 226 225 227 230 230 227 229 233 229 208 181 158 147 139 140 157 168 177 176 173 177 180 175 158 153 185 221 213 182 166 165 169 164 163 165 164 162 162 162 161 161 163 163 162 164 165 161 157 153 155 161 162 159 150 147 145 135 127 121 115 114 112 112 114 114 116 118 118 117 115 113 109 104 103 102 100 100 100 99 96 94 92 92 92 93 95 97 99 102 105 108 111 114 116
226 222 223 226 223 224 229 231 227 225 230 230 217 193 173 162 150 144 153 167 177 179 177 180 183 181 165 152 172 206 220 200 177 175 176 169 167 170 169 166 165 166 163 162 164 165 164 166 166 162 158 156 157 161 163 161 152 148 144 134 127 120 116 115 114 113 114 114 115 116 117 118 120 118 114 110 108 107 105 104 103 101 99 97 95 93 93 94 96 98 99 102 104 106 109 112 114
227 222 223 223 221 219 221 226 226 222 224 227 222 204 187 176 167 162 160 168 177 180 181 181 181 179 168 154 167 191 205 202 187 182 181 173 172 172 169 165 165 168 167 165 165 166 166 166 166 163 161 161 160 162 164 163 156 149 142 133 126 121 119 118 117 115 114 114 115 116 116 117 119 118 116 114 113 112 111 110 108 104 102 100 98 95 93 93 95 98 100 102 103 105 108 111 114
226 224 223 218 216 214 215 223 226 224 221 222 220 208 194 182 176 174 167 166 173 177 179 179 177 176 172 162 168 188 199 200 187 176 180 181 176 172 170 167 166 170 172 172 169 167 167 167 167 165 164 163 161 163 165 163 159 150 141 134 128 124 123 122 121 119 116 116 117 117 116 116 117 116 115 115 115 115 115 114 111 107 105 103 101 98 95 93 94 98 101 103 104 105 107 110 113
225 223 219 212 211 209 209 216 218 219 216 215 214 207 198 186 180 180 172 162 165 174 179 178 177 178 179 170 169 187 199 197 184 175 181 183 175 172 173 173 171 171 173 175 172 170 169 168 168 167 166 164 162 164 164 162 158 150 141 135 130 127 126 125 125 124 121 121 122 119 116 116 115 116 116 117 117 117 117 116 114 111 109 107 104 102 99 96 95 98 103 105 105 106 107 109 111
223 221 214 204 205 203 202 208 208 210 210 206 204 202 199 189 184 183 177 166 163 173 182 184 183 182 185 178 171 184 196 190 176 172 184 181 174 177 179 180 178 174 173 176 175 173 171 169 168 168 168 166 164 164 162 160 156 149 141 136 131 127 126 126 126 126 125 126 125 123 120 119 117 117 119 120 119 120 119 119 120 118 116 113 110 107 104 101 100 101 106 108 108 109 110 111 111
217 217 211 199 199 198 199 207 208 211 212 204 197 195 194 189 185 183 179 175 171 175 183 186 185 182 185 184 173 173 182 183 171 166 180 185 177 183 189 189 181 176 177 179 176 175 174 171 169 170 170 168 165 164 162 158 154 149 143 137 133 130 127 126 126 127 127 128 127 125 123 121 119 118 120 122 122 123 123 123 124 124 122 119 115 112 109 106 104 104 109 112 113 113 114 115 115
213 213 208 196 194 194 201 209 209 211 211 202 196 193 191 188 184 183 180 178 176 179 182 182 182 181 182 184 174 166 170 178 178 174 178 184 184 186 195 195 186 180 179 181 179 176 176 174 172 170 169 169 168 165 161 156 151 147 143 139 136 132 129 129 130 129 127 126 125 125 124 122 121 120 121 123 125 126 126 126 126 127 126 124 121 118 114 111 108 108 112 116 117 116 116 115 115
210 210 206 197 191 192 202 210 206 204 202 197 195 193 192 190 185 183 181 177 176 180 181 179 178 178 179 181 177 171 173 179 186 189 182 179 183 181 187 194 191 186 181 181 182 178 177 177 175 172 169 168 168 164 159 155 150 147 146 144 140 136 132 133 134 131 128 125 124 125 125 124 123 123 126 128 127 128 130 130 131 131 131 129 127 125 121 116 113 113 117 119 119 117 116 115 115
207 205 205 198 190 190 201 210 207 204 201 196 194 193 194 194 189 186 181 176 173 171 173 176 174 170 172 178 181 183 184 184 189 197 189 177 178 174 176 193 193 188 186 183 184 182 177 176 177 176 171 167 167 164 161 159 154 152 153 150 144 138 135 137 136 133 129 126 126 126 124 123 123 125 129 130 128 127 129 133 136 137 139 137 134 131 126 122 119 117 119 120 118 116 115 114 115
206 202 203 200 191 188 198 207 208 206 204 198 195 195 196 195 194 191 183 175 168 164 165 170 169 166 169 176 185 195 197 189 187 196 194 178 171 166 167 190 192 187 189 189 187 185 180 177 178 179 173 167 167 165 164 165 160 156 155 152 147 141 139 140 138 134 130 129 129 127 124 123 123 125 129 129 126 125 125 130 137 141 144 143 140 137 133 129 124 120 121 121 118 114 111 109 111
205 201 202 201 191 188 196 203 205 203 199 197 196 196 196 195 196 193 186 178 168 164 162 163 166 171 175 178 187 200 200 186 177 187 192 180 165 163 165 183 191 188 191 194 192 187 184 181 179 179 175 169 167 167 167 167 160 153 150 149 146 142 141 140 137 133 131 133 133 129 126 124 125 127 128 127 124 123 122 125 132 139 144 145 144 141 137 133 127 123 123 123 118 111 106 104 107
205 202 201 201 193 189 194 199 202 199 195 197 199 199 199 198 198 196 191 185 175 169 166 164 168 173 175 178 187 196 195 187 181 177 183 186 177 168 171 184 192 190 192 196 194 189 187 184 180 180 179 172 167 167 167 163 154 145 143 144 142 140 141 141 138 134 133 138 138 131 127 128 129 131 130 127 124 121 120 120 124 131 139 144 144 141 138 135 129 124 123 122 118 111 106 103 105
208 205 203 202 198 194 194 198 201 198 197 202 204 204 203 202 203 201 196 192 184 176 172 168 169 174 177 181 185 185 183 187 190 181 178 184 183 177 180 187 192 191 192 196 196 192 189 186 183 183 181 173 168 167 164 154 143 137 135 137 139 141 145 145 143 140 140 144 140 132 129 132 135 135 132 128 124 120 117 117 119 125 132 138 140 140 140 138 132 125 123 123 120 114 109 106 105
211 209 204 203 203 200 198 201 201 200 202 205 207 208 207 205 204 203 200 196 190 183 177 171 170 175 180 183 183 180 180 186 192 189 182 180 182 185 186 185 189 192 190 192 194 194 191 188 186 186 183 175 169 166 159 149 142 137 136 142 147 151 152 152 150 148 147 145 138 131 132 137 138 135 131 126 122 119 118 117 120 124 129 133 136 138 141 140 135 128 126 127 124 118 112 106 102
212 210 205 204 206 204 203 204 203 202 202 204 208 208 207 205 202 203 203 198 192 187 182 175 171 172 175 179 182 182 183 188 195 197 190 184 185 188 185 181 190 196 192 192 191 189 191 192 189 187 185 178 170 164 159 153 150 148 149 156 161 161 160 156 153 150 146 143 136 132 135 138 137 132 128 124 121 120 119 120 122 125 127 130 134 137 140 140 137 133 132 133 130 125 117 108 100
209 207 206 206 207 205 206 207 205 202 201 205 209 206 204 204 202 203 201 194 192 190 187 182 174 170 171 176 180 183 187 190 195 200 198 192 190 188 183 184 194 199 193 192 190 184 187 193 191 189 188 182 172 165 162 159 160 161 161 165 168 166 161 156 153 150 146 142 138 136 139 140 135 130 127 124 122 121 122 123 125 126 127 130 132 135 138 139 138 135 135 136 135 129 118 107 104
205 202 205 207 207 205 206 208 207 203 203 207 209 205 202 202 203 205 201 196 197 196 193 189 180 174 174 175 179 184 188 190 195 201 200 196 191 187 187 191 199 201 191 189 191 186 185 191 192 190 190 185 176 170 167 166 171 173 168 166 167 165 161 157 156 153 148 146 144 141 143 142 137 131 128 127 125 124 125 127 129 128 129 131 132 134 135 136 136 135 135 136 136 132 121 114 115
201 199 203 205 205 205 206 208 207 205 206 207 207 206 203 200 203 209 207 205 206 203 198 193 186 180 178 179 182 184 187 191 197 201 200 197 192 188 191 197 201 200 190 187 192 190 185 187 189 189 190 188 181 176 174 175 180 180 171 166 165 165 163 161 161 157 152 151 150 146 146 145 140 134 130 129 128 128 129 130 130 130 131 133 134 134 135 135 135 135 135 136 135 133 128 125 125
197 199 202 203 202 204 207 209 208 207 207 205 206 208 202 198 202 208 211 211 208 203 197 194 191 187 182 184 187 189 191 196 200 201 202 202 198 193 192 194 197 200 196 191 192 191 185 185 187 187 189 189 187 184 181 182 185 182 173 167 166 167 168 166 166 164 159 158 158 154 150 148 144 138 134 133 132 132 133 133 131 130 132 134 137 138 139 139 139 138 137 137 136 135 133 133 131
196 199 200 201 201 203 207 209 211 211 208 203 207 211 202 197 200 205 209 206 195 190 190 190 192 189 185 186 189 193 196 200 203 202 204 208 209 205 196 190 191 199 203 192 189 191 188 185 187 186 187 190 191 191 188 188 189 183 177 171 169 172 174 173 172 171 168 167 166 162 156 153 151 146 142 141 140 138 137 136 134 132 132 135 138 140 141 143 143 143 142 142 141 139 139 138 136
199 200 199 200 200 202 206 209 213 215 210 203 208 213 206 199 200 202 205 204 197 192 188 184 181 178 178 182 187 192 195 197 201 202 204 208 213 215 206 193 190 196 201 189 184 190 190 189 189 187 187 189 192 195 195 194 193 187 180 176 175 177 178 180 181 180 178 174 172 170 166 163 160 157 153 150 149 145 142 139 138 138 137 139 140 141 143 145 147 147 147 147 146 144 144 144 144
202 201 201 201 200 203 207 210 215 217 214 207 208 213 210 203 202 201 203 205 204 201 195 189 183 178 177 179 181 187 191 192 194 198 202 205 209 213 209 197 188 190 198 197 187 187 192 192 190 187 187 189 192 196 199 200 199 194 185 181 182 183 183 185 188 189 187 183 181 179 176 172 169 165 160 156 155 152 149 147 146 146 145 145 146 145 147 150 152 152 152 152 152 150 149 150 151
205 204 204 204 205 206 209 212 216 218 216 212 210 212 213 209 203 201 203 204 203 203 202 198 191 185 183 181 181 183 187 188 188 191 196 203 207 209 207 196 185 183 193 200 194 189 192 193 191 189 188 189 192 196 200 202 205 201 192 187 189 190 189 189 192 195 195 193 193 191 186 180 176 172 167 162 161 160 157 155 154 154 154 154 154 153 153 156 158 158 158 158 157 157 155 155 158
206 205 205 207 210 212 213 215 218 219 218 217 214 212 213 213 205 200 202 203 201 201 203 202 196 192 190 189 187 185 185 186 187 187 189 197 204 205 205 198 187 185 191 198 200 194 193 195 194 192 190 190 192 196 200 203 206 206 198 192 195 198 196 194 197 199 198 200 203 201 196 190 185 182 177 171 169 169 166 164 163 162 162 163 163 161 160 162 164 166 165 163 164 164 163 161 163
207 207 206 207 210 213 215 217 218 220 220 221 220 216 214 213 207 203 203 203 201 200 201 199 196 197 197 197 196 191 187 186 187 187 187 192 198 201 203 199 192 190 190 196 203 201 197 197 198 196 194 192 193 196 200 203 206 207 202 195 198 204 204 200 201 202 202 204 207 208 206 200 195 194 190 183 179 177 175 173 172 170 169 169 170 169 167 167 168 169 171 169 168 170 168 165 164
208 208 208 208 210 212 215 217 218 218 219 221 223 221 217 214 209 206 206 207 206 204 200 196 196 201 201 198 197 195 192 189 186 187 187 188 191 195 198 198 197 194 192 196 203 206 203 201 201 200 198 195 195 197 201 204 205 205 204 199 199 206 209 206 204 205 206 208 209 211 211 207 204 205 203 196 187 184 181 178 175 174 173 173 173 173 173 172 171 171 173 172 168 168 166 160 156
209 209 209 209 209 212 215 218 218 218 218 220 223 223 221 217 211 208 209 212 212 208 203 199 197 200 201 197 195 193 193 192 189 188 188 187 187 189 192 194 196 198 197 198 204 209 209 206 204 204 201 198 198 199 202 205 205 204 203 201 199 205 210 210 208 207 209 212 213 214 213 211 212 212 211 206 198 191 186 181 176 175 176 175 175 175 175 176 174 171 172 170 164 162 159 153 149
210 209 209 210 210 212 215 218 220 220 219 220 222 223 223 222 217 211 211 215 215 208 203 202 199 197 198 198 195 192 193 194 193 192 192 188 185 186 189 191 195 200 201 203 208 212 213 211 209 207 205 202 201 201 202 204 206 205 203 201 200 204 209 211 211 210 210 214 217 218 217 216 216 216 215 212 205 199 192 184 179 178 179 178 178 177 177 178 177 173 170 167 163 160 157 152 150
209 208 208 210 211 213 215 217 220 222 222 222 223 224 225 225 223 217 214 216 216 210 204 203 201 195 195 198 196 194 197 199 196 195 192 188 185 186 188 191 195 199 202 206 209 213 216 216 215 213 210 208 205 204 204 205 207 206 204 201 200 203 208 210 211 211 211 214 216 218 221 221 220 219 218 215 209 202 196 189 184 182 182 183 182 182 182 180 178 175 172 169 167 165 162 158 158
208 207 207 209 210 213 215 216 219 221 223 225 225 226 227 227 226 223 220 219 220 215 209 205 202 196 195 199 199 199 204 205 203 200 195 189 185 186 188 191 196 199 201 206 208 211 215 217 219 220 217 213 209 207 206 207 208 209 207 204 201 201 206 209 209 210 211 215 216 217 220 222 223 222 220 218 213 206 198 191 188 187 186 187 188 187 185 183 181 180 177 175 172 171 169 168 168
209 208 207 209 210 212 215 216 218 220 223 225 226 227 229 229 229 227 225 223 222 221 215 209 203 200 200 203 206 209 212 208 206 205 201 196 190 187 188 191 196 199 199 203 207 208 212 215 217 220 221 218 213 210 208 208 209 210 210 209 206 203 204 206 206 206 209 214 217 218 219 220 225 226 223 220 216 209 200 193 190 190 190 191 193 192 190 187 185 184 183 181 179 177 177 177 176